[[{"header":{"parameterUnit":"m.s-1","parameterCategory":1,"la1":30.2991,"la2":30.254,"lo1":-89.0895,"lo2":-89.0444,"dy":0.0017,"dx":0.0017,"nx":28,"ny":28,"refTime":"2024-04-27T03:00:00:Z","depth":0,"parameterNumber":2,"parameterNumberName":"U-component_of_WINDS"},"data":[0,0,0,0,0,0,0,0,0,0,0,0,0,0,0,0,0,0,0,0,0,0,0,0,0,0,0,0,0,0,0,0,0,0,0,0,0,0,0,0,0,0,0,0,0,0,0,0,0,0,0,0,0,0,0,0,0,0,-7.7785,-7.7786,0,-7.7839,-7.784,-7.784,-7.7749,-7.7746,-7.7743,-7.774,-7.779,-7.7794,-7.7798,0,0,0,0,0,0,0,0,0,0,0,0,0,-7.7598,-7.7602,-7.7785,-7.7786,-7.7786,-7.7839,-7.784,-7.7841,-7.7749,-7.7746,-7.7742,-7.7738,-7.7788,-7.7793,-7.7799,0,0,0,0,0,0,0,0,0,0,0,0,0,-7.7669,-7.7604,-7.7785,-7.7747,-7.7745,-7.7839,-7.784,-7.7841,-7.775,-7.7745,-7.7741,-7.7737,-7.7787,-7.7793,-7.7799,-7.7931,0,0,-7.7819,-7.7821,0,0,0,0,0,0,0,0,-7.7665,-7.7676,-7.7752,-7.775,-7.7747,-7.7783,-7.7792,-7.7871,-7.7751,-7.7748,-7.774,-7.7734,-7.7791,-7.7797,-7.7817,-7.7933,-7.7936,-7.7819,-7.7823,-7.7826,-7.7827,0,0,0,0,0,0,0,-7.766,-7.7673,-7.7806,-7.7753,-7.775,-7.7726,-7.7731,-7.7807,-7.7794,-7.7748,-7.7741,-7.7749,-7.7788,-7.7811,-7.7817,-7.7936,-7.7819,-7.7825,-7.7828,-7.7831,-7.8163,-7.8168,0,0,0,0,0,0,-7.7661,-7.7669,-7.7804,-7.7808,-7.7694,-7.7734,-7.7739,-7.7776,-7.7793,-7.7792,-7.7753,-7.7745,-7.7802,-7.781,-7.7819,-7.7972,-7.7826,-7.7832,-7.7835,-7.8158,-7.8164,-7.817,0,0,0,0,0,0,-7.7657,-7.7673,-7.7802,-7.7737,-7.7752,-7.7742,-7.7784,-7.7779,-7.7801,-7.7798,-7.7794,-7.7778,-7.7799,-7.781,-7.7904,-7.7973,-7.7834,-7.784,-7.8152,-7.816,-7.8167,-7.8282,0,0,0,0,0,0,-7.7652,-7.7673,-7.7723,-7.7739,-7.7755,-7.7888,-7.7788,-7.7784,-7.7813,-7.7803,-7.782,-7.7819,-7.7796,-7.7895,-7.791,-7.7979,-7.7845,-7.8146,-7.8156,-7.8164,-7.8272,-7.8292,-7.831,0,0,0,0,0,-7.7646,-7.7753,-7.7726,-7.7743,-7.7819,-7.7892,-7.7901,-7.7875,-7.7819,-7.7869,-7.7867,-7.7818,-7.7964,-7.7905,-7.7922,-7.7993,-7.8141,-7.8153,-7.8164,-7.8263,-7.8288,-7.831,0,0,0,0,0,0,-7.7743,-7.7754,-7.7725,-7.784,-7.7867,-7.7877,-7.7938,-7.7902,-7.7943,-7.7931,-7.7895,-7.79,-7.8001,-7.8007,-7.7942,-7.8122,-7.8043,-7.8058,-7.8113,-7.8137,-7.8156,-7.815,-7.785,0,0,0,0,0,-7.7778,-7.7839,-7.7844,-7.7946,-7.7961,-7.7948,-7.7979,-7.7957,-7.7981,-7.7991,-7.7995,-7.802,-7.8071,-7.8105,-7.8152,-7.8274,-7.8275,-7.8332,-7.8351,-7.8367,-7.8379,-7.8442,-7.8466,-7.8207,-7.8207,-7.8206,0,0,-7.7851,-7.7864,-7.7904,-7.7966,-7.7983,-7.8044,-7.7958,-7.8026,-7.8071,-7.8001,-7.8089,-7.8095,-7.8119,-7.8228,-7.8276,-7.8236,-7.8452,-7.8381,-7.8394,-7.8397,-7.8456,-7.8481,-7.8503,-7.8214,-7.8213,-7.8212,0,0,-7.8013,-7.8031,-7.8117,-7.8137,-7.8166,-7.8157,-7.8178,-7.8195,-7.8196,-7.8286,-7.8234,-7.8287,-7.8376,-7.8395,-7.8417,-7.8591,-7.8547,-7.8608,-7.8706,-7.8768,-7.8788,-7.8806,-7.8865,-7.8887,-7.8621,-7.8621,-7.8621,0,-7.8098,-7.8191,-7.8165,-7.8238,-7.8265,-7.8209,-7.8294,-7.8314,-7.8356,-7.8376,-7.8332,-7.8444,-7.8457,-7.8568,-7.8611,-7.8632,-7.8652,-7.8603,-7.8788,-7.8806,-7.8822,-7.8878,-7.8901,-7.8628,-7.8627,-7.8627,-7.8626,0,-7.8293,-7.8358,-7.8424,-7.8468,-7.8504,-7.8583,-7.8567,-7.8607,-7.8583,-7.8579,-7.867,-7.8685,-7.8733,-7.8759,-7.8735,-7.8868,-7.8842,-7.8795,-7.8713,-7.8854,-7.8906,-7.8927,-7.8638,-7.8636,-7.8633,-7.8632,0,0,-7.8513,-7.8545,-7.8569,-7.8588,-7.8617,-7.8666,-7.8743,-7.8792,-7.8825,-7.8858,-7.8919,-7.8998,-7.8954,-7.8979,-7.8958,-7.9013,-7.9147,-7.8958,-7.8958,-7.899,-7.9291,-7.9323,-7.9349,-7.9121,-7.9125,-7.9128,-7.9288,0,-7.8673,-7.8805,-7.8786,-7.8913,-7.8972,-7.8921,-7.8987,-7.9011,-7.9011,-7.9059,-7.9058,-7.9113,-7.9053,-7.9068,-7.9121,-7.912,-7.9206,-7.9109,-7.9174,-7.9177,-7.9165,-7.9376,-7.9411,-7.956,-7.9308,-7.9311,-7.9314,0,-7.8875,-7.8916,-7.905,-7.9071,-7.9094,-7.9155,-7.9198,-7.9247,-7.9274,-7.9269,-7.9299,-7.9268,-7.9343,-7.9266,-7.9367,-7.9301,-7.9328,-7.9332,-7.9337,-7.9338,-7.925,-7.9379,-7.9608,-7.9629,-7.9346,-7.9344,-7.9341,0,-7.9018,-7.9107,-7.9199,-7.9217,-7.9244,-7.9288,-7.9301,-7.9323,-7.9355,-7.9393,-7.9413,-7.946,-7.9484,-7.9521,-7.9503,-7.9449,-7.9607,-7.9529,-7.9603,-7.9603,-7.9634,-7.9631,-7.9866,-7.9659,-7.9659,-7.9659,-7.9658,0,-7.9195,-7.9277,-7.9263,-7.9319,-7.941,-7.9388,-7.9478,-7.9485,-7.9506,-7.9561,-7.9521,-7.9573,-7.9549,-7.9599,-7.9586,-7.9671,-7.9683,-7.968,-7.9674,-7.9681,-7.9681,-7.9693,-7.9681,-7.9664,-7.9663,-7.9662,-7.9661,0,-7.9367,-7.9361,-7.9457,-7.9477,-7.9483,-7.955,-7.9565,-7.9616,-7.9615,-7.9685,-7.97,-7.9696,-7.9753,-7.9741,-7.9804,-7.9795,-7.99,-7.9884,-7.9891,-7.9886,-7.9959,-7.9951,-8.0206,-8.0238,-8.0015,-8.0017,-8.0019,0,-7.9478,-7.9541,-7.9568,-7.9603,-7.962,-7.9677,-7.9709,-7.969,-7.9725,-7.9762,-7.9809,-7.9864,-7.9905,-7.9999,-8.0001,-8.0048,-8.003,-8.0117,-8.0037,-8.0041,-8.0027,-8.0022,-8.0026,-8.0131,-8.0133,-8.0135,-8.0137,0,-7.9674,-7.9669,-7.9718,-7.9768,-7.9808,-7.9845,-7.9878,-7.9909,-7.9893,-7.9935,-7.9994,-8.0027,-8.0092,-8.0145,-8.019,-8.0202,-8.0166,-8.0164,-8.0182,-8.0187,-8.0187,-8.0184,-7.993,-8.0156,-8.0154,-8.0153,-8.0152,-8.0151,-7.9816,-7.987,-7.9897,-7.9954,-7.9978,-8.001,-8.0059,-8.0065,-8.0115,-8.0167,-8.0154,-8.022,-8.0246,-8.0303,-8.032,-8.0371,-8.0338,-8.0367,-8.0373,-8.0379,-8.0386,-8.0184,-8.038,-8.0379,-8.0379,-8.0378,-8.0378,0,-8.0007,-8.0024,-8.0076,-8.0125,-8.0169,-8.0137,-8.0172,-8.021,-8.027,-8.0299,-8.0342,-8.041,-8.0462,-8.047,-8.0519,-8.0558,-8.0543,-8.0572,-8.0566,-8.0569,-8.0415,-8.0392,-8.0583,-8.0583,-8.0583,-8.0583,-8.0583,-8.0583,-8.0111,-8.0199,-8.0198,-8.0297,-8.0312,-8.0379,-8.0402,-8.0431,-8.0453,-8.0532,-8.0576,-8.0582,-8.0601,-8.0652,-8.0699,-8.0699,-8.0717,-8.0751,-8.0746,-8.06,-8.058,-8.056,-8.0538,-8.0757,-8.0757,-8.0895,-8.0896,-8.0897]},{"header":{"parameterUnit":"m.s-1","parameterCategory":1,"la1":30.2991,"la2":30.254,"lo1":-89.0895,"lo2":-89.0444,"dy":0.0017,"dx":0.0017,"nx":28,"ny":28,"refTime":"2024-04-27T03:00:00:Z","depth":0,"parameterNumber":3,"parameterNumberName":"V-component_of_WINDS"},"data":[0,0,0,0,0,0,0,0,0,0,0,0,0,0,0,0,0,0,0,0,0,0,0,0,0,0,0,0,0,0,0,0,0,0,0,0,0,0,0,0,0,0,0,0,0,0,0,0,0,0,0,0,0,0,0,0,0,0,2.8384,2.8384,0,2.843,2.8431,2.8431,2.8449,2.8449,2.8449,2.8449,2.8493,2.8495,2.8496,0,0,0,0,0,0,0,0,0,0,0,0,0,2.8309,2.831,2.8384,2.8384,2.8385,2.843,2.8431,2.8432,2.8449,2.8449,2.8449,2.8449,2.8493,2.8494,2.8496,0,0,0,0,0,0,0,0,0,0,0,0,0,2.8347,2.8311,2.8384,2.8399,2.8401,2.843,2.8431,2.8432,2.8449,2.8449,2.8449,2.8449,2.8492,2.8494,2.8496,2.8512,0,0,2.8502,2.8503,0,0,0,0,0,0,0,0,2.8345,2.835,2.8397,2.8398,2.8401,2.8434,2.8421,2.8458,2.8449,2.8431,2.8449,2.8449,2.8474,2.8477,2.8486,2.8514,2.8516,2.8502,2.8504,2.8504,2.8505,0,0,0,0,0,0,0,2.8342,2.8348,2.8402,2.8397,2.84,2.8404,2.8409,2.8428,2.8453,2.8433,2.8434,2.8439,2.8475,2.8484,2.8487,2.8517,2.8502,2.8504,2.8505,2.8506,2.8562,2.8562,0,0,0,0,0,0,2.8337,2.8346,2.8401,2.8404,2.8372,2.8405,2.8411,2.8423,2.8452,2.8457,2.844,2.844,2.8481,2.8485,2.8489,2.851,2.8504,2.8506,2.8507,2.8562,2.8562,2.8562,0,0,0,0,0,0,2.8336,2.8342,2.8399,2.8375,2.8383,2.8407,2.842,2.8424,2.8434,2.8458,2.8462,2.8445,2.8481,2.8486,2.8507,2.8512,2.8507,2.8509,2.8561,2.8562,2.8562,2.8553,0,0,0,0,0,0,2.8333,2.8341,2.8348,2.8375,2.8384,2.8416,2.8421,2.8425,2.8438,2.8439,2.8464,2.8468,2.8481,2.8504,2.8509,2.8515,2.851,2.8561,2.8561,2.8562,2.8553,2.8553,2.8553,0,0,0,0,0,2.8331,2.8342,2.8348,2.8354,2.8392,2.8416,2.8421,2.8437,2.8438,2.8445,2.846,2.8467,2.8511,2.8506,2.8511,2.8518,2.8561,2.8561,2.8562,2.8552,2.8553,2.8553,0,0,0,0,0,0,2.8313,2.8346,2.8353,2.8373,2.8392,2.8419,2.8428,2.8437,2.8455,2.8455,2.8473,2.8479,2.8498,2.851,2.8504,2.8536,2.8536,2.8538,2.8527,2.8528,2.8528,2.8524,2.8512,0,0,0,0,0,2.8311,2.8329,2.8357,2.8372,2.8382,2.8403,2.8414,2.8425,2.8445,2.8453,2.847,2.8488,2.8506,2.8518,2.8535,2.8555,2.8561,2.8562,2.8563,2.8563,2.8564,2.8576,2.8578,2.8565,2.8565,2.8565,0,0,2.8308,2.8328,2.8338,2.8369,2.8385,2.8403,2.841,2.8427,2.8441,2.8455,2.8476,2.849,2.8511,2.8532,2.8542,2.8543,2.8569,2.8564,2.8563,2.8565,2.8577,2.8578,2.8579,2.8565,2.8565,2.8565,0,0,2.8311,2.8328,2.8344,2.8361,2.8386,2.8401,2.8404,2.8431,2.8441,2.8463,2.8475,2.8491,2.8521,2.8537,2.8549,2.8561,2.8568,2.8566,2.8567,2.8579,2.858,2.8581,2.8586,2.8587,2.8568,2.8568,2.8568,0,2.8304,2.8332,2.8351,2.8369,2.8383,2.8399,2.8415,2.843,2.8458,2.8467,2.8468,2.8509,2.8524,2.8549,2.8553,2.8562,2.8567,2.8563,2.8578,2.858,2.8581,2.8586,2.8588,2.8567,2.8567,2.8567,2.8567,0,2.8322,2.8341,2.8351,2.838,2.8395,2.8412,2.8434,2.8446,2.8457,2.8472,2.8494,2.8514,2.8537,2.8544,2.8553,2.8571,2.8571,2.8575,2.8576,2.8581,2.8586,2.8588,2.8567,2.8567,2.8567,2.8567,0,0,2.8313,2.8355,2.8358,2.8373,2.8403,2.8418,2.8436,2.846,2.8471,2.8491,2.8507,2.8534,2.8539,2.8552,2.8564,2.8574,2.8584,2.8577,2.8578,2.8578,2.8606,2.8603,2.8604,2.859,2.859,2.859,2.8604,0,2.8321,2.8355,2.8374,2.84,2.8419,2.8435,2.8452,2.8472,2.8486,2.8504,2.852,2.8539,2.8544,2.8552,2.8564,2.858,2.859,2.858,2.8604,2.8605,2.8598,2.8607,2.8603,2.8615,2.8606,2.8607,2.8607,0,2.8333,2.8355,2.8384,2.8414,2.8423,2.8437,2.8461,2.8478,2.8502,2.8512,2.8529,2.8541,2.8561,2.8561,2.8589,2.8582,2.8593,2.8603,2.8604,2.8606,2.8606,2.861,2.8619,2.8621,2.861,2.861,2.8609,0,2.8325,2.8361,2.8384,2.8396,2.8431,2.8441,2.8456,2.8479,2.8493,2.8515,2.8524,2.8547,2.856,2.8577,2.8595,2.8594,2.8622,2.8623,2.8631,2.863,2.8635,2.8634,2.8646,2.8643,2.8643,2.8643,2.8643,0,2.8331,2.8348,2.8381,2.8395,2.8414,2.8436,2.8455,2.8471,2.8493,2.851,2.8526,2.8541,2.8564,2.8583,2.8597,2.8619,2.8624,2.8633,2.8636,2.8631,2.863,2.8638,2.8638,2.8643,2.8643,2.8643,2.8643,0,2.8324,2.8347,2.8373,2.8405,2.8414,2.8427,2.8455,2.8469,2.8486,2.8507,2.8513,2.8539,2.8562,2.8583,2.8612,2.8622,2.8644,2.8648,2.8636,2.8638,2.8645,2.8644,2.8662,2.8666,2.866,2.866,2.866,0,2.8327,2.8341,2.8375,2.8389,2.8404,2.8425,2.8441,2.8463,2.8478,2.8508,2.8518,2.8543,2.8563,2.8599,2.862,2.8643,2.8648,2.8653,2.8651,2.8647,2.8649,2.8648,2.8649,2.8653,2.8653,2.8653,2.8653,0,2.8329,2.834,2.8362,2.8389,2.8407,2.8428,2.845,2.846,2.8487,2.8503,2.8527,2.8544,2.8575,2.86,2.8626,2.8641,2.8651,2.8653,2.8656,2.8651,2.8644,2.8648,2.8636,2.8652,2.8652,2.8652,2.8652,2.8652,2.8327,2.8341,2.8368,2.8393,2.8412,2.8433,2.8448,2.8468,2.8489,2.8518,2.853,2.8555,2.858,2.8616,2.8632,2.8651,2.8653,2.8657,2.8658,2.8659,2.8659,2.8641,2.8656,2.8656,2.8656,2.8656,2.8656,0,2.833,2.835,2.8372,2.8403,2.8423,2.8433,2.8458,2.8474,2.8496,2.8519,2.854,2.8569,2.8593,2.8617,2.8643,2.8654,2.8659,2.866,2.8659,2.8662,2.8655,2.865,2.8655,2.8655,2.8655,2.8655,2.8655,2.8655,2.8334,2.8359,2.8374,2.8408,2.8427,2.8453,2.8467,2.8486,2.8505,2.8537,2.8558,2.8574,2.8598,2.8626,2.8648,2.8655,2.8663,2.8663,2.867,2.8663,2.8663,2.8662,2.8658,2.8664,2.8664,2.8676,2.8676,2.8676]}]]